Time,TemperatureF,DewpointF,PressureIn,WindDirection,WindDirectionDegrees,WindSpeedMPH,WindSpeedGustMPH,Humidity,HourlyPrecipIn,Conditions,Clouds,dailyrainin,SoftwareType,DateUTC
2013-01-27 00:01:00,43.3,38.8,30.01,NW,315,0.0,0.0,84,0.00,,,0.00,OpenJ2300 V2.0,2013-01-27 08:01:00,
2013-01-27 00:06:00,43.2,38.6,30.01,NW,315,0.0,0.0,84,0.00,,,0.00,OpenJ2300 V2.0,2013-01-27 08:06:00,
2013-01-27 00:11:00,43.2,38.6,30.01,NW,315,0.0,2.7,84,0.00,,,0.00,OpenJ2300 V2.0,2013-01-27 08:11:00,
2013-01-27 00:16:00,43.0,38.4,30.00,NW,315,0.0,2.7,84,0.00,,,0.00,OpenJ2300 V2.0,2013-01-27 08:16:00,
2013-01-27 00:21:00,43.0,38.4,30.00,NW,315,0.0,2.7,84,0.00,,,0.00,OpenJ2300 V2.0,2013-01-27 08:21:00,
2013-01-27 00:26:00,43.0,38.8,30.00,NW,315,0.0,2.7,85,0.00,,,0.00,OpenJ2300 V2.0,2013-01-27 08:26:00,
2013-01-27 00:31:00,42.8,38.6,30.00,NW,315,0.0,0.0,85,0.00,,,0.00,OpenJ2300 V2.0,2013-01-27 08:31:00,
2013-01-27 00:36:00,43.0,38.8,30.00,NW,315,0.0,0.0,85,0.00,,,0.00,OpenJ2300 V2.0,2013-01-27 08:36:00,
2013-01-27 00:42:00,43.0,38.8,30.00,NW,315,0.0,0.0,85,0.00,,,0.00,OpenJ2300 V2.0,2013-01-27 08:42:00,
2013-01-27 00:47:00,43.0,39.1,29.99,NW,315,0.0,0.0,86,0.00,,,0.00,OpenJ2300 V2.0,2013-01-27 08:47:00,
2013-01-27 00:52:00,43.0,39.1,29.99,NW,315,0.0,0.0,86,0.00,,,0.00,OpenJ2300 V2.0,2013-01-27 08:52:00,
2013-01-27 00:57:00,43.0,39.1,29.99,NW,315,0.0,0.0,86,0.00,,,0.00,OpenJ2300 V2.0,2013-01-27 08:57:00,
2013-01-27 01:05:00,43.0,38.8,29.99,NW,315,0.0,0.0,85,0.00,,,0.00,OpenJ2300 V2.0,2013-01-27 09:05:00,
2013-01-27 01:10:00,43.0,38.8,29.99,NW,315,0.0,0.0,86,0.00,,,0.00,OpenJ2300 V2.0,2013-01-27 09:10:00,
2013-01-27 01:58:00,43.3,39.7,29.99,NW,315,0.0,0.0,87,0.00,,,0.00,OpenJ2300 V2.0,2013-01-27 09:58:00,
2013-01-27 02:58:00,44.2,40.0,30.00,NW,315,0.0,0.0,85,0.00,,,0.00,OpenJ2300 V2.0,2013-01-27 10:58:00,
2013-01-27 03:58:00,43.5,39.3,29.99,NW,315,0.0,0.0,85,0.00,,,0.00,OpenJ2300 V2.0,2013-01-27 11:58:00,
2013-01-27 04:58:00,41.5,37.7,29.99,NW,315,0.0,0.0,86,0.00,,,0.00,OpenJ2300 V2.0,2013-01-27 12:58:00,
2013-01-27 05:58:00,40.3,36.7,29.99,NW,315,0.0,0.0,87,0.00,,,0.00,OpenJ2300 V2.0,2013-01-27 13:58:00,
2013-01-27 06:58:00,40.8,37.5,30.04,NW,315,0.0,0.0,88,0.00,,,0.00,OpenJ2300 V2.0,2013-01-27 14:58:00,
2013-01-27 08:18:00,39.9,36.9,30.05,NW,315,0.0,0.0,89,0.00,,,0.00,OpenJ2300 V2.0,2013-01-27 16:18:00,
2013-01-27 08:24:00,40.1,36.9,30.05,NW,315,0.0,0.0,89,0.00,,,0.00,OpenJ2300 V2.0,2013-01-27 16:24:00,
2013-01-27 08:29:00,40.3,37.1,30.05,NW,315,0.0,0.0,89,0.00,,,0.00,OpenJ2300 V2.0,2013-01-27 16:29:00,
2013-01-27 08:34:00,40.5,37.3,30.05,NW,315,0.0,0.0,89,0.00,,,0.00,OpenJ2300 V2.0,2013-01-27 16:34:00,
2013-01-27 08:40:00,40.6,37.5,30.05,NW,315,0.0,0.0,89,0.00,,,0.00,OpenJ2300 V2.0,2013-01-27 16:40:00,
2013-01-27 08:45:00,41.0,37.8,30.05,NW,315,0.0,0.0,89,0.00,,,0.00,OpenJ2300 V2.0,2013-01-27 16:45:00,
2013-01-27 08:50:00,41.4,38.5,30.07,NW,315,0.0,0.0,90,0.00,,,0.00,OpenJ2300 V2.0,2013-01-27 16:50:00,
2013-01-27 08:55:00,41.7,39.0,30.07,NW,315,0.0,0.0,90,0.00,,,0.00,OpenJ2300 V2.0,2013-01-27 16:55:00,
2013-01-27 09:01:00,42.3,39.0,30.07,NW,315,0.0,3.1,90,0.00,,,0.00,OpenJ2300 V2.0,2013-01-27 17:01:00,
2013-01-27 09:06:00,42.6,39.6,30.07,NW,315,0.0,3.1,90,0.00,,,0.00,OpenJ2300 V2.0,2013-01-27 17:06:00,
2013-01-27 09:11:00,43.3,39.6,30.07,NW,315,2.7,6.3,89,0.00,,,0.00,OpenJ2300 V2.0,2013-01-27 17:11:00,
2013-01-27 09:17:00,44.2,40.5,30.07,NW,315,3.8,6.3,89,0.00,,,0.00,OpenJ2300 V2.0,2013-01-27 17:17:00,
2013-01-27 09:22:00,44.6,40.9,30.08,NW,315,1.8,6.3,88,0.00,,,0.00,OpenJ2300 V2.0,2013-01-27 17:22:00,
2013-01-27 09:27:00,45.1,40.9,30.08,NW,315,2.9,7.6,85,0.00,,,0.00,OpenJ2300 V2.0,2013-01-27 17:27:00,
2013-01-27 09:33:00,45.7,40.9,30.08,NNE,23,2.5,7.6,85,0.00,,,0.00,OpenJ2300 V2.0,2013-01-27 17:33:00,
2013-01-27 09:38:00,45.7,41.0,30.08,NNE,23,2.9,7.6,84,0.00,,,0.00,OpenJ2300 V2.0,2013-01-27 17:38:00,
2013-01-27 09:43:00,45.9,41.2,30.08,NNE,23,3.4,7.6,83,0.00,,,0.00,OpenJ2300 V2.0,2013-01-27 17:43:00,
2013-01-27 09:48:00,46.0,40.6,30.08,NNE,23,3.4,7.4,81,0.00,,,0.00,OpenJ2300 V2.0,2013-01-27 17:48:00,
2013-01-27 09:53:00,46.2,40.5,30.08,NNE,23,4.3,7.4,80,0.00,,,0.00,OpenJ2300 V2.0,2013-01-27 17:53:00,
2013-01-27 09:58:00,46.8,41.0,30.08,WNW,293,3.8,4.5,80,0.00,,,0.00,OpenJ2300 V2.0,2013-01-27 17:58:00,
2013-01-27 10:03:00,46.9,40.8,30.08,WNW,293,3.8,5.4,79,0.00,,,0.00,OpenJ2300 V2.0,2013-01-27 18:03:00,
2013-01-27 10:08:00,46.9,40.8,30.08,WNW,293,2.5,5.4,79,0.00,,,0.00,OpenJ2300 V2.0,2013-01-27 18:08:00,
2013-01-27 10:13:00,47.1,40.6,30.08,NW,315,4.5,6.5,78,0.00,,,0.00,OpenJ2300 V2.0,2013-01-27 18:13:00,
2013-01-27 10:18:00,47.3,40.1,30.08,NW,315,1.3,6.7,77,0.00,,,0.00,OpenJ2300 V2.0,2013-01-27 18:18:00,
2013-01-27 10:23:00,47.5,40.6,30.09,NW,315,2.9,9.6,77,0.00,,,0.00,OpenJ2300 V2.0,2013-01-27 18:23:00,
2013-01-27 10:28:00,47.5,40.6,30.09,NW,315,0.0,9.6,77,0.00,,,0.00,OpenJ2300 V2.0,2013-01-27 18:28:00,
2013-01-27 10:33:00,47.5,40.2,30.09,NNW,338,4.0,9.6,76,0.00,,,0.00,OpenJ2300 V2.0,2013-01-27 18:33:00,
2013-01-27 10:38:00,47.7,39.4,30.09,NW,315,4.9,12.1,73,0.00,,,0.00,OpenJ2300 V2.0,2013-01-27 18:38:00,
2013-01-27 10:43:00,48.0,39.7,30.09,NW,315,0.0,12.1,73,0.00,,,0.00,OpenJ2300 V2.0,2013-01-27 18:43:00,
2013-01-27 10:48:00,48.0,39.7,30.09,North,0,6.3,12.1,73,0.00,,,0.00,OpenJ2300 V2.0,2013-01-27 18:48:00,
2013-01-27 10:54:00,48.2,39.7,30.09,NNW,338,2.5,12.1,71,0.00,,,0.00,OpenJ2300 V2.0,2013-01-27 18:54:00,
2013-01-27 10:59:00,48.4,39.2,30.09,North,0,6.3,10.1,71,0.00,,,0.00,OpenJ2300 V2.0,2013-01-27 18:59:00,
2013-01-27 11:05:00,48.6,39.4,30.09,NW,315,7.4,10.1,71,0.00,,,0.00,OpenJ2300 V2.0,2013-01-27 19:05:00,
2013-01-27 11:10:00,48.7,39.2,30.09,WNW,293,5.4,10.1,70,0.00,,,0.00,OpenJ2300 V2.0,2013-01-27 19:10:00,
2013-01-27 11:15:00,48.7,39.4,30.09,NNW,338,5.1,10.1,70,0.00,,,0.00,OpenJ2300 V2.0,2013-01-27 19:15:00,
2013-01-27 11:21:00,48.9,39.0,30.08,NNW,338,4.5,9.6,69,0.00,,,0.00,OpenJ2300 V2.0,2013-01-27 19:21:00,
2013-01-27 11:26:00,49.1,39.2,30.08,North,0,4.5,9.6,69,0.00,,,0.00,OpenJ2300 V2.0,2013-01-27 19:26:00,
2013-01-27 11:31:00,49.3,39.0,30.08,NNE,23,4.3,9.6,68,0.00,,,0.00,OpenJ2300 V2.0,2013-01-27 19:31:00,
2013-01-27 11:37:00,49.5,39.1,30.08,NNW,338,0.0,8.1,68,0.00,,,0.00,OpenJ2300 V2.0,2013-01-27 19:37:00,
2013-01-27 11:42:00,49.6,39.3,30.08,WNW,293,2.9,8.1,68,0.00,,,0.00,OpenJ2300 V2.0,2013-01-27 19:42:00,
2013-01-27 11:48:00,49.6,39.5,30.08,WNW,293,0.0,8.1,68,0.00,,,0.00,OpenJ2300 V2.0,2013-01-27 19:48:00,
2013-01-27 11:53:00,49.6,39.9,30.07,WNW,293,3.4,8.1,69,0.00,,,0.00,OpenJ2300 V2.0,2013-01-27 19:53:00,
2013-01-27 11:58:00,49.8,39.9,30.07,NNE,23,4.3,10.7,69,0.00,,,0.00,OpenJ2300 V2.0,2013-01-27 19:58:00,
2013-01-27 12:04:00,50.4,39.7,30.07,NNW,338,5.1,12.1,65,0.00,,,0.00,OpenJ2300 V2.0,2013-01-27 20:04:00,
2013-01-27 12:09:00,50.4,39.0,30.07,NNW,338,5.4,12.1,65,0.00,,,0.00,OpenJ2300 V2.0,2013-01-27 20:09:00,
2013-01-27 12:14:00,50.5,39.2,30.07,NNE,23,3.1,12.1,65,0.00,,,0.00,OpenJ2300 V2.0,2013-01-27 20:14:00,
2013-01-27 12:19:00,50.5,39.6,30.07,NW,315,3.8,12.1,66,0.00,,,0.00,OpenJ2300 V2.0,2013-01-27 20:19:00,
2013-01-27 12:24:00,50.7,39.7,30.06,NE,45,3.1,10.1,66,0.00,,,0.00,OpenJ2300 V2.0,2013-01-27 20:24:00,
2013-01-27 12:29:00,51.1,39.5,30.06,NW,315,8.5,11.2,65,0.00,,,0.00,OpenJ2300 V2.0,2013-01-27 20:29:00,
2013-01-27 12:34:00,51.3,39.4,30.06,NNW,338,5.1,11.2,64,0.00,,,0.00,OpenJ2300 V2.0,2013-01-27 20:34:00,
2013-01-27 12:39:00,51.4,39.2,30.06,NNW,338,11.9,11.9,63,0.00,,,0.00,OpenJ2300 V2.0,2013-01-27 20:39:00,
2013-01-27 12:44:00,51.4,38.4,30.06,NNW,338,7.8,11.9,61,0.00,,,0.00,OpenJ2300 V2.0,2013-01-27 20:44:00,
2013-01-27 12:49:00,51.6,38.5,30.06,NNE,23,1.6,11.9,61,0.00,,,0.00,OpenJ2300 V2.0,2013-01-27 20:49:00,
2013-01-27 12:54:00,51.6,37.7,30.05,North,0,2.9,11.9,59,0.00,,,0.00,OpenJ2300 V2.0,2013-01-27 20:54:00,
2013-01-27 12:59:00,51.6,37.2,30.05,NNW,338,9.6,10.3,58,0.00,,,0.00,OpenJ2300 V2.0,2013-01-27 20:59:00,
2013-01-27 13:04:00,51.8,36.5,30.05,NNW,338,9.2,11.9,56,0.00,,,0.00,OpenJ2300 V2.0,2013-01-27 21:04:00,
2013-01-27 13:09:00,52.0,36.5,30.05,NW,315,4.0,11.9,56,0.00,,,0.00,OpenJ2300 V2.0,2013-01-27 21:09:00,
2013-01-27 13:14:00,52.0,36.7,30.05,NW,315,8.9,12.8,56,0.00,,,0.00,OpenJ2300 V2.0,2013-01-27 21:14:00,
2013-01-27 13:19:00,52.0,36.7,30.05,WNW,293,4.0,12.8,56,0.00,,,0.00,OpenJ2300 V2.0,2013-01-27 21:19:00,
2013-01-27 13:25:00,52.2,36.7,30.04,NNW,338,4.9,12.8,56,0.00,,,0.00,OpenJ2300 V2.0,2013-01-27 21:25:00,
2013-01-27 13:30:00,52.3,36.8,30.04,WNW,293,4.5,12.8,56,0.00,,,0.00,OpenJ2300 V2.0,2013-01-27 21:30:00,
2013-01-27 13:35:00,52.5,37.0,30.04,WNW,293,6.5,11.0,57,0.00,,,0.00,OpenJ2300 V2.0,2013-01-27 21:35:00,
2013-01-27 13:41:00,52.3,37.5,30.04,NW,315,6.3,11.0,57,0.00,,,0.00,OpenJ2300 V2.0,2013-01-27 21:41:00,
2013-01-27 13:46:00,52.5,37.2,30.04,NNW,338,10.7,12.1,57,0.00,,,0.00,OpenJ2300 V2.0,2013-01-27 21:46:00,
2013-01-27 13:52:00,52.5,36.7,30.04,WNW,293,4.0,12.1,55,0.00,,,0.00,OpenJ2300 V2.0,2013-01-27 21:52:00,
2013-01-27 13:57:00,52.5,36.3,30.04,NNW,338,7.8,13.0,54,0.00,,,0.00,OpenJ2300 V2.0,2013-01-27 21:57:00,
2013-01-27 14:02:00,52.5,34.9,30.04,NNW,338,7.2,13.0,51,0.00,,,0.00,OpenJ2300 V2.0,2013-01-27 22:02:00,
2013-01-27 14:07:00,52.7,34.6,30.04,WNW,293,6.9,13.0,50,0.00,,,0.00,OpenJ2300 V2.0,2013-01-27 22:07:00,
2013-01-27 14:12:00,52.7,35.1,30.04,NNW,338,1.6,13.0,51,0.00,,,0.00,OpenJ2300 V2.0,2013-01-27 22:12:00,
2013-01-27 14:17:00,52.9,34.8,30.04,NW,315,4.5,13.6,50,0.00,,,0.00,OpenJ2300 V2.0,2013-01-27 22:17:00,
2013-01-27 14:22:00,53.1,34.9,30.04,West,270,4.9,13.6,50,0.00,,,0.00,OpenJ2300 V2.0,2013-01-27 22:22:00,
2013-01-27 14:27:00,53.2,35.5,30.04,WNW,293,5.8,13.6,51,0.00,,,0.00,OpenJ2300 V2.0,2013-01-27 22:27:00,
2013-01-27 14:32:00,53.2,35.5,30.04,WNW,293,1.8,13.6,51,0.00,,,0.00,OpenJ2300 V2.0,2013-01-27 22:32:00,
2013-01-27 14:38:00,53.2,35.5,30.04,WNW,293,8.3,13.0,51,0.00,,,0.00,OpenJ2300 V2.0,2013-01-27 22:38:00,
2013-01-27 14:43:00,53.2,35.1,30.04,NW,315,4.7,13.0,50,0.00,,,0.00,OpenJ2300 V2.0,2013-01-27 22:43:00,
2013-01-27 14:48:00,53.2,34.5,30.04,NNW,338,6.5,12.3,49,0.00,,,0.00,OpenJ2300 V2.0,2013-01-27 22:48:00,
2013-01-27 14:53:00,53.2,34.0,30.04,NNW,338,7.2,13.9,48,0.00,,,0.00,OpenJ2300 V2.0,2013-01-27 22:53:00,
2013-01-27 14:58:00,53.2,34.5,30.04,North,0,7.6,14.1,49,0.00,,,0.00,OpenJ2300 V2.0,2013-01-27 22:58:00,
2013-01-27 15:03:00,53.2,34.5,30.04,NW,315,7.6,14.1,49,0.00,,,0.00,OpenJ2300 V2.0,2013-01-27 23:03:00,
2013-01-27 15:08:00,53.2,35.1,30.04,WNW,293,7.2,14.1,50,0.00,,,0.00,OpenJ2300 V2.0,2013-01-27 23:08:00,
2013-01-27 15:13:00,53.2,35.1,30.04,NW,315,3.8,14.1,50,0.00,,,0.00,OpenJ2300 V2.0,2013-01-27 23:13:00,
2013-01-27 15:19:00,53.2,35.1,30.04,NNW,338,3.6,12.8,50,0.00,,,0.00,OpenJ2300 V2.0,2013-01-27 23:19:00,
2013-01-27 15:24:00,53.2,35.1,30.03,West,270,4.9,11.6,50,0.00,,,0.00,OpenJ2300 V2.0,2013-01-27 23:24:00,
2013-01-27 15:29:00,53.2,34.5,30.03,NNW,338,8.7,11.6,49,0.00,,,0.00,OpenJ2300 V2.0,2013-01-27 23:29:00,
2013-01-27 15:34:00,53.2,34.5,30.03,NW,315,7.4,11.4,48,0.00,,,0.00,OpenJ2300 V2.0,2013-01-27 23:34:00,
2013-01-27 15:39:00,53.2,34.0,30.03,NNW,338,5.8,13.0,47,0.00,,,0.00,OpenJ2300 V2.0,2013-01-27 23:39:00,
2013-01-27 15:45:00,52.9,33.4,30.03,NNW,338,6.3,13.0,47,0.00,,,0.00,OpenJ2300 V2.0,2013-01-27 23:45:00,
2013-01-27 15:50:00,53.2,33.7,30.03,NW,315,5.6,13.0,48,0.00,,,0.00,OpenJ2300 V2.0,2013-01-27 23:50:00,
2013-01-27 15:55:00,53.2,33.4,30.03,NNW,338,4.7,12.3,47,0.00,,,0.00,OpenJ2300 V2.0,2013-01-27 23:55:00,
2013-01-27 16:00:00,53.2,33.4,30.03,NW,315,4.0,12.3,47,0.00,,,0.00,OpenJ2300 V2.0,2013-01-28 00:00:00,
2013-01-27 16:05:00,53.2,32.9,30.03,NW,315,3.4,12.3,46,0.00,,,0.00,OpenJ2300 V2.0,2013-01-28 00:05:00,
2013-01-27 16:11:00,53.1,32.7,30.03,NNW,338,6.5,11.9,46,0.00,,,0.00,OpenJ2300 V2.0,2013-01-28 00:11:00,
2013-01-27 16:16:00,52.9,32.5,30.03,NNW,338,4.3,11.9,45,0.00,,,0.00,OpenJ2300 V2.0,2013-01-28 00:16:00,
2013-01-27 16:21:00,53.1,32.7,30.02,NW,315,10.1,10.5,46,0.00,,,0.00,OpenJ2300 V2.0,2013-01-28 00:21:00,
2013-01-27 16:26:00,52.9,33.1,30.02,West,270,5.6,10.5,46,0.00,,,0.00,OpenJ2300 V2.0,2013-01-28 00:26:00,
2013-01-27 16:31:00,52.9,33.7,30.02,NW,315,6.9,10.1,48,0.00,,,0.00,OpenJ2300 V2.0,2013-01-28 00:31:00,
2013-01-27 16:36:00,52.9,33.1,30.02,NNW,338,2.9,10.1,47,0.00,,,0.00,OpenJ2300 V2.0,2013-01-28 00:36:00,
2013-01-27 16:41:00,52.7,32.9,30.02,NNW,338,3.1,10.1,47,0.00,,,0.00,OpenJ2300 V2.0,2013-01-28 00:41:00,
2013-01-27 16:46:00,52.7,32.4,30.02,NW,315,6.5,10.1,46,0.00,,,0.00,OpenJ2300 V2.0,2013-01-28 00:46:00,
2013-01-27 16:51:00,52.5,32.8,30.02,WNW,293,7.6,9.6,47,0.00,,,0.00,OpenJ2300 V2.0,2013-01-28 00:51:00,
2013-01-27 16:56:00,52.3,33.7,30.02,NW,315,6.3,11.0,49,0.00,,,0.00,OpenJ2300 V2.0,2013-01-28 00:56:00,
2013-01-27 17:01:00,52.3,34.3,30.02,NNW,338,8.5,11.6,50,0.00,,,0.00,OpenJ2300 V2.0,2013-01-28 01:01:00,
2013-01-27 17:06:00,52.3,34.7,30.02,NW,315,7.2,11.6,51,0.00,,,0.00,OpenJ2300 V2.0,2013-01-28 01:06:00,
2013-01-27 17:11:00,52.0,34.9,30.02,NW,315,2.9,11.6,52,0.00,,,0.00,OpenJ2300 V2.0,2013-01-28 01:11:00,
2013-01-27 17:16:00,52.0,35.3,30.02,NW,315,5.8,11.6,53,0.00,,,0.00,OpenJ2300 V2.0,2013-01-28 01:16:00,
2013-01-27 17:21:00,51.6,35.3,30.02,WNW,293,2.0,10.5,54,0.00,,,0.00,OpenJ2300 V2.0,2013-01-28 01:21:00,
2013-01-27 17:27:00,51.4,35.4,30.02,NW,315,2.9,10.5,54,0.00,,,0.00,OpenJ2300 V2.0,2013-01-28 01:27:00,
2013-01-27 17:32:00,51.3,35.7,30.02,WNW,293,2.5,9.6,55,0.00,,,0.00,OpenJ2300 V2.0,2013-01-28 01:32:00,
2013-01-27 17:38:00,50.9,36.0,30.02,WNW,293,1.8,9.6,56,0.00,,,0.00,OpenJ2300 V2.0,2013-01-28 01:38:00,
2013-01-27 17:43:00,50.7,36.4,30.02,WNW,293,2.9,9.6,58,0.00,,,0.00,OpenJ2300 V2.0,2013-01-28 01:43:00,
2013-01-27 17:48:00,50.5,36.4,30.02,WNW,293,7.6,7.6,58,0.00,,,0.00,OpenJ2300 V2.0,2013-01-28 01:48:00,
2013-01-27 17:54:00,50.2,36.7,30.04,WNW,293,3.8,7.6,59,0.00,,,0.00,OpenJ2300 V2.0,2013-01-28 01:54:00,
2013-01-27 17:59:00,50.2,36.8,30.04,West,270,3.4,8.7,60,0.00,,,0.00,OpenJ2300 V2.0,2013-01-28 01:59:00,
2013-01-27 18:04:00,49.8,36.8,30.04,West,270,2.9,8.7,60,0.00,,,0.00,OpenJ2300 V2.0,2013-01-28 02:04:00,
2013-01-27 18:10:00,49.6,36.9,30.04,West,270,0.0,8.7,61,0.00,,,0.00,OpenJ2300 V2.0,2013-01-28 02:10:00,
2013-01-27 18:16:00,49.3,37.2,30.04,West,270,6.0,8.7,63,0.00,,,0.00,OpenJ2300 V2.0,2013-01-28 02:16:00,
2013-01-27 18:21:00,49.3,37.2,30.04,West,270,1.6,6.5,63,0.00,,,0.00,OpenJ2300 V2.0,2013-01-28 02:21:00,
2013-01-27 18:26:00,49.3,37.6,30.04,West,270,4.0,8.9,64,0.00,,,0.00,OpenJ2300 V2.0,2013-01-28 02:26:00,
2013-01-27 18:31:00,49.1,37.8,30.04,West,270,4.7,8.9,65,0.00,,,0.00,OpenJ2300 V2.0,2013-01-28 02:31:00,
2013-01-27 18:36:00,48.9,37.6,30.04,West,270,1.1,8.9,65,0.00,,,0.00,OpenJ2300 V2.0,2013-01-28 02:36:00,
2013-01-27 18:41:00,48.7,37.8,30.04,West,270,3.6,8.9,66,0.00,,,0.00,OpenJ2300 V2.0,2013-01-28 02:41:00,
2013-01-27 18:46:00,48.6,38.0,30.04,West,270,0.0,6.3,67,0.00,,,0.00,OpenJ2300 V2.0,2013-01-28 02:46:00,
2013-01-27 18:51:00,48.4,37.9,30.04,West,270,0.0,6.3,67,0.00,,,0.00,OpenJ2300 V2.0,2013-01-28 02:51:00,
2013-01-27 18:56:00,48.2,37.7,30.05,West,270,0.0,6.3,67,0.00,,,0.00,OpenJ2300 V2.0,2013-01-28 02:56:00,
2013-01-27 19:01:00,48.0,37.5,30.05,West,270,2.0,4.0,67,0.00,,,0.00,OpenJ2300 V2.0,2013-01-28 03:01:00,
2013-01-27 19:06:00,48.0,37.9,30.05,West,270,0.0,4.3,68,0.00,,,0.00,OpenJ2300 V2.0,2013-01-28 03:06:00,
2013-01-27 19:11:00,48.0,38.3,30.05,West,270,1.6,4.3,69,0.00,,,0.00,OpenJ2300 V2.0,2013-01-28 03:11:00,
2013-01-27 19:17:00,48.0,38.3,30.05,West,270,2.2,5.6,70,0.00,,,0.00,OpenJ2300 V2.0,2013-01-28 03:17:00,
2013-01-27 19:22:00,47.8,38.5,30.05,West,270,1.1,5.6,70,0.00,,,0.00,OpenJ2300 V2.0,2013-01-28 03:22:00,
2013-01-27 19:27:00,47.8,38.5,30.05,West,270,0.0,5.6,70,0.00,,,0.00,OpenJ2300 V2.0,2013-01-28 03:27:00,
2013-01-27 19:32:00,47.7,38.5,30.05,West,270,0.0,5.6,70,0.00,,,0.00,OpenJ2300 V2.0,2013-01-28 03:32:00,
2013-01-27 19:37:00,47.7,38.4,30.05,West,270,2.9,3.6,71,0.00,,,0.00,OpenJ2300 V2.0,2013-01-28 03:37:00,
2013-01-27 19:42:00,47.5,38.5,30.05,West,270,2.5,3.6,71,0.00,,,0.00,OpenJ2300 V2.0,2013-01-28 03:42:00,
2013-01-27 19:47:00,47.5,38.2,30.05,West,270,1.8,6.0,70,0.00,,,0.00,OpenJ2300 V2.0,2013-01-28 03:47:00,
2013-01-27 19:53:00,47.3,38.0,30.06,West,270,3.1,6.0,70,0.00,,,0.00,OpenJ2300 V2.0,2013-01-28 03:53:00,
2013-01-27 19:58:00,47.3,38.0,30.06,West,270,3.4,7.4,70,0.00,,,0.00,OpenJ2300 V2.0,2013-01-28 03:58:00,
2013-01-27 20:03:00,47.1,38.0,30.06,West,270,1.1,7.4,71,0.00,,,0.00,OpenJ2300 V2.0,2013-01-28 04:03:00,
2013-01-27 20:08:00,47.1,38.2,30.06,West,270,2.0,7.4,71,0.00,,,0.00,OpenJ2300 V2.0,2013-01-28 04:08:00,
2013-01-27 20:14:00,47.1,38.2,30.06,West,270,0.0,7.4,71,0.00,,,0.00,OpenJ2300 V2.0,2013-01-28 04:14:00,
2013-01-27 20:19:00,47.1,38.2,30.06,West,270,0.0,4.7,71,0.00,,,0.00,OpenJ2300 V2.0,2013-01-28 04:19:00,
2013-01-27 20:25:00,46.9,38.2,30.06,West,270,2.9,4.3,71,0.00,,,0.00,OpenJ2300 V2.0,2013-01-28 04:25:00,
2013-01-27 20:30:00,46.9,38.0,30.06,West,270,0.0,3.4,71,0.00,,,0.00,OpenJ2300 V2.0,2013-01-28 04:30:00,
2013-01-27 20:36:00,46.9,38.4,30.06,West,270,0.0,3.8,72,0.00,,,0.00,OpenJ2300 V2.0,2013-01-28 04:36:00,
2013-01-27 20:41:00,46.8,38.4,30.06,West,270,0.0,3.8,72,0.00,,,0.00,OpenJ2300 V2.0,2013-01-28 04:41:00,
2013-01-27 20:46:00,46.8,38.2,30.06,West,270,0.0,3.8,72,0.00,,,0.00,OpenJ2300 V2.0,2013-01-28 04:46:00,
2013-01-27 20:52:00,46.6,38.2,30.06,West,270,0.0,3.8,72,0.00,,,0.00,OpenJ2300 V2.0,2013-01-28 04:52:00,
2013-01-27 20:57:00,46.6,38.1,30.07,West,270,0.0,5.8,72,0.00,,,0.00,OpenJ2300 V2.0,2013-01-28 04:57:00,
2013-01-27 21:07:00,46.2,38.1,30.07,West,270,0.0,5.8,73,0.00,,,0.00,OpenJ2300 V2.0,2013-01-28 05:07:00,
2013-01-27 21:12:00,46.2,38.1,30.07,West,270,0.0,5.8,73,0.00,,,0.00,OpenJ2300 V2.0,2013-01-28 05:12:00,
2013-01-27 21:17:00,46.2,38.4,30.07,West,270,0.0,4.7,74,0.00,,,0.00,OpenJ2300 V2.0,2013-01-28 05:17:00,
2013-01-27 21:23:00,46.0,38.2,30.06,West,270,2.2,4.7,74,0.00,,,0.00,OpenJ2300 V2.0,2013-01-28 05:23:00,
2013-01-27 21:28:00,46.0,38.2,30.06,West,270,0.0,4.7,74,0.00,,,0.00,OpenJ2300 V2.0,2013-01-28 05:28:00,
2013-01-27 21:33:00,46.0,38.2,30.06,West,270,0.0,4.3,74,0.00,,,0.00,OpenJ2300 V2.0,2013-01-28 05:33:00,
2013-01-27 21:38:00,46.0,38.2,30.06,West,270,0.0,4.3,74,0.00,,,0.00,OpenJ2300 V2.0,2013-01-28 05:38:00,
2013-01-27 21:43:00,45.9,38.2,30.06,West,270,0.0,4.3,75,0.00,,,0.00,OpenJ2300 V2.0,2013-01-28 05:43:00,
2013-01-27 21:48:00,45.7,38.2,30.06,West,270,0.0,1.6,75,0.00,,,0.00,OpenJ2300 V2.0,2013-01-28 05:48:00,
2013-01-27 21:54:00,45.7,38.6,30.07,West,270,0.0,0.0,76,0.00,,,0.00,OpenJ2300 V2.0,2013-01-28 05:54:00,
2013-01-27 21:59:00,45.3,38.2,30.07,West,270,0.0,0.0,76,0.00,,,0.00,OpenJ2300 V2.0,2013-01-28 05:59:00,
2013-01-27 22:04:00,45.1,38.0,30.07,West,270,0.0,0.0,76,0.00,,,0.00,OpenJ2300 V2.0,2013-01-28 06:04:00,
2013-01-27 22:09:00,45.0,37.8,30.07,West,270,0.0,0.0,76,0.00,,,0.00,OpenJ2300 V2.0,2013-01-28 06:09:00,
2013-01-27 22:14:00,44.8,37.7,30.07,West,270,0.0,0.0,76,0.00,,,0.00,OpenJ2300 V2.0,2013-01-28 06:14:00,
2013-01-27 22:19:00,44.4,37.3,30.07,West,270,0.0,0.0,76,0.00,,,0.00,OpenJ2300 V2.0,2013-01-28 06:19:00,
2013-01-27 22:24:00,44.4,37.3,30.06,West,270,0.0,0.0,76,0.00,,,0.00,OpenJ2300 V2.0,2013-01-28 06:24:00,
2013-01-27 22:29:00,44.2,37.1,30.06,West,270,0.0,0.0,76,0.00,,,0.00,OpenJ2300 V2.0,2013-01-28 06:29:00,
2013-01-27 22:34:00,43.9,36.8,30.06,West,270,0.0,0.0,76,0.00,,,0.00,OpenJ2300 V2.0,2013-01-28 06:34:00,
2013-01-27 22:40:00,43.7,36.8,30.06,West,270,0.0,0.0,76,0.00,,,0.00,OpenJ2300 V2.0,2013-01-28 06:40:00,
2013-01-27 22:45:00,43.5,36.6,30.06,West,270,0.0,0.0,76,0.00,,,0.00,OpenJ2300 V2.0,2013-01-28 06:45:00,
2013-01-27 22:50:00,43.5,36.4,30.06,West,270,0.0,0.0,76,0.00,,,0.00,OpenJ2300 V2.0,2013-01-28 06:50:00,
2013-01-27 22:56:00,43.3,36.6,30.07,West,270,0.0,0.0,77,0.00,,,0.00,OpenJ2300 V2.0,2013-01-28 06:56:00,
2013-01-27 23:01:00,43.3,36.9,30.07,West,270,0.0,0.0,78,0.00,,,0.00,OpenJ2300 V2.0,2013-01-28 07:01:00,
2013-01-27 23:06:00,43.3,36.9,30.07,West,270,0.0,0.0,78,0.00,,,0.00,OpenJ2300 V2.0,2013-01-28 07:06:00,
2013-01-27 23:11:00,43.3,36.7,30.07,West,270,0.0,0.0,78,0.00,,,0.00,OpenJ2300 V2.0,2013-01-28 07:11:00,
2013-01-27 23:16:00,43.2,36.7,30.07,West,270,0.0,0.0,78,0.00,,,0.00,OpenJ2300 V2.0,2013-01-28 07:16:00,
2013-01-27 23:21:00,43.0,36.6,30.07,West,270,0.0,0.0,78,0.00,,,0.00,OpenJ2300 V2.0,2013-01-28 07:21:00,
2013-01-27 23:26:00,43.0,36.9,30.06,West,270,0.0,0.0,79,0.00,,,0.00,OpenJ2300 V2.0,2013-01-28 07:26:00,
2013-01-27 23:31:00,42.6,36.5,30.06,West,270,0.0,0.0,79,0.00,,,0.00,OpenJ2300 V2.0,2013-01-28 07:31:00,
2013-01-27 23:36:00,42.6,36.5,30.06,West,270,0.0,0.0,79,0.00,,,0.00,OpenJ2300 V2.0,2013-01-28 07:36:00,
2013-01-27 23:41:00,42.4,36.4,30.06,West,270,0.0,0.0,79,0.00,,,0.00,OpenJ2300 V2.0,2013-01-28 07:41:00,
2013-01-27 23:46:00,42.3,36.2,30.06,West,270,0.0,0.0,79,0.00,,,0.00,OpenJ2300 V2.0,2013-01-28 07:46:00,
2013-01-27 23:51:00,42.1,36.3,30.06,West,270,0.0,0.0,80,0.00,,,0.00,OpenJ2300 V2.0,2013-01-28 07:51:00,
2013-01-27 23:57:00,41.9,36.1,30.07,West,270,0.0,0.0,80,0.00,,,0.00,OpenJ2300 V2.0,2013-01-28 07:57:00,